Date String (YYYY-MM-DD hh:mm:ss) UTC,Instrument flags,Ambient pressure (hPa),Sample flow (lpm),Bypass flow (lpm),Sample temperature (°C),Ambient temperature (°C),ASC tube jacket temperature (°C),LED temperature (°C),Box temperature (°C),Sample RH (%),Span deviation,Mass concentration (μg/m³),Mass concentration (μg/m³),Mass concentration (μg/m³)
DateTimeUTC,F1_M11,P_M11,Q1_M11,Q2_M11,T1_M11,T2_M11,T3_M11,T4_M11,T5_M11,U1_M11,ZSPAN_M11,X0_M11,X2_M11,X1_M11
2021-09-15 23:00:00,,0822.8,4.99,0.00,29.0,27.4,00.0,38.0,30.9,18.5,0002.1,0018.10,0007.84,0006.66
2021-09-15 23:01:00,,0822.7,5.01,0.00,29.1,27.7,00.0,38.0,31.0,18.6,0002.2,0018.83,0007.84,0006.68
2021-09-15 23:02:00,,0822.8,5.00,0.00,29.1,28.0,00.0,38.1,31.1,18.6,0001.7,0019.80,0007.87,0006.70
2021-09-15 23:03:00,,0822.8,5.00,0.00,29.2,28.3,00.0,38.1,31.2,18.5,0001.5,0020.01,0007.89,0006.72
2021-09-15 23:04:00,,0822.8,5.00,0.00,29.2,27.3,00.0,38.1,30.9,18.3,0001.0,0019.99,0007.89,0006.73
2021-09-15 23:05:00,,0822.8,5.01,0.00,29.1,25.7,00.0,38.1,30.4,18.4,0000.7,0019.76,0007.85,0006.73
2021-09-15 23:06:00,,0822.8,4.99,0.00,29.0,25.8,00.0,38.1,30.4,18.7,0000.5,0020.03,0007.80,0006.74
2021-09-15 23:07:00,,0822.8,5.00,0.00,28.9,26.2,00.0,38.0,30.6,18.7,0000.5,0019.03,0007.82,0006.75
2021-09-15 23:08:00,,0822.8,5.00,0.00,28.9,26.7,00.0,38.0,30.7,18.9,0000.7,0018.01,0007.78,0006.73
2021-09-15 23:09:00,,0822.8,5.01,0.00,29.0,27.2,00.0,38.0,30.8,19.4,0000.9,0017.99,0007.79,0006.72
2021-09-15 23:10:00,,0822.9,5.00,0.00,29.0,27.6,00.0,38.0,30.9,19.2,0000.9,0017.87,0007.81,0006.73
2021-09-15 23:11:00,,0822.9,4.99,0.00,29.1,27.9,00.0,38.0,31.0,18.9,0001.0,0017.76,0007.79,0006.74
2021-09-15 23:12:00,,0822.9,4.99,0.00,29.2,27.8,00.0,38.1,31.0,18.9,0001.2,0016.87,0007.83,0006.75
2021-09-15 23:13:00,,0822.9,5.00,0.00,29.1,26.2,00.0,38.1,30.6,18.9,0001.5,0015.62,0007.79,0006.73
2021-09-15 23:14:00,,0822.9,5.01,0.00,28.9,25.4,00.0,38.0,30.3,18.9,0001.5,0014.89,0007.77,0006.71
2021-09-15 23:15:00,,0822.9,5.00,0.00,28.9,25.9,00.0,38.0,30.4,18.9,0002.0,0015.70,0007.77,0006.69
2021-09-15 23:16:00,,0822.9,5.00,0.00,28.9,26.3,00.0,38.0,30.5,18.7,0002.2,0016.78,0007.74,0006.70
2021-09-15 23:17:00,,0822.9,5.01,0.00,28.9,26.8,00.0,38.0,30.6,18.4,0002.4,0016.44,0007.71,0006.70
2021-09-15 23:18:00,,0822.9,4.98,0.00,28.9,27.2,00.0,38.0,30.7,18.5,0002.4,0017.19,0007.72,0006.71
2021-09-15 23:19:00,,0822.9,4.99,0.00,29.0,27.6,00.0,38.0,30.9,18.6,0002.5,0017.83,0007.75,0006.72
2021-09-15 23:20:00,,0822.9,5.01,0.00,29.1,27.9,00.0,38.0,31.0,18.6,0002.3,0018.14,0007.79,0006.73
2021-09-15 23:21:00,,0822.9,5.00,0.00,29.1,28.2,00.0,38.0,31.1,18.1,0002.5,0019.61,0007.83,0006.75
2021-09-15 23:22:00,,0822.9,5.00,0.00,29.2,28.2,00.0,38.1,31.1,18.0,0002.6,0020.51,0007.87,0006.76
2021-09-15 23:23:00,,0823.0,5.00,0.00,29.1,26.7,00.0,38.1,30.6,18.3,0002.4,0020.07,0007.82,0006.77
2021-09-15 23:24:00,,0823.0,5.01,0.00,29.0,25.7,00.0,38.0,30.4,18.8,0002.5,0020.31,0007.84,0006.78
2021-09-15 23:25:00,,0823.0,5.00,0.00,28.9,26.0,00.0,38.0,30.5,19.0,0002.9,0021.63,0007.88,0006.82
2021-09-15 23:26:00,,0823.0,5.00,0.00,28.9,26.4,00.0,38.0,30.6,19.2,0003.1,0021.57,0007.90,0006.84
2021-09-15 23:27:00,,0822.9,5.00,0.00,28.9,26.9,00.0,38.0,30.7,19.3,0003.2,0020.46,0007.99,0006.85
2021-09-15 23:28:00,,0822.9,5.00,0.00,29.0,27.3,00.0,38.0,30.8,18.6,0003.4,0020.58,0008.06,0006.87
2021-09-15 23:29:00,,0822.9,5.00,0.00,29.0,27.7,00.0,38.0,30.9,18.4,0003.3,0020.78,0008.08,0006.88
2021-09-15 23:30:00,,0822.9,5.01,0.00,29.1,28.0,00.0,38.0,31.0,18.2,0003.6,0021.02,0008.08,0006.88
2021-09-15 23:31:00,,0823.0,4.98,0.00,29.2,28.1,00.0,38.0,31.1,18.2,0004.0,0022.35,0008.14,0006.91
2021-09-15 23:32:00,,0822.9,5.01,0.00,29.1,26.6,00.0,38.0,30.7,18.4,0004.2,0021.97,0008.16,0006.92
2021-09-15 23:33:00,,0822.9,5.00,0.00,28.9,25.5,00.0,38.0,30.3,18.7,0004.0,0020.66,0008.23,0006.94
2021-09-15 23:34:00,,0823.0,5.01,0.00,28.9,25.8,00.0,38.0,30.4,18.9,0004.1,0020.78,0008.29,0006.96
2021-09-15 23:35:00,,0823.0,4.99,0.00,28.9,26.3,00.0,38.0,30.5,18.9,0003.8,0021.81,0008.36,0006.98
2021-09-15 23:36:00,,0822.9,5.01,0.00,28.9,26.8,00.0,38.0,30.6,19.0,0003.4,0022.27,0008.43,0006.98
2021-09-15 23:37:00,,0822.9,4.99,0.00,28.9,27.2,00.0,38.0,30.8,19.3,0002.8,0022.71,0008.47,0007.00
2021-09-15 23:38:00,,0822.9,5.00,0.00,29.0,27.5,00.0,38.0,30.9,18.9,0002.6,0024.42,0008.48,0007.01
2021-09-15 23:39:00,,0822.9,5.00,0.00,29.0,27.9,00.0,38.0,31.0,18.5,0002.7,0026.49,0008.51,0007.01
2021-09-15 23:40:00,,0823.0,4.99,0.00,29.1,28.2,00.0,38.0,31.1,18.3,0003.0,0026.12,0008.57,0007.02
2021-09-15 23:41:00,,0823.0,5.00,0.00,29.2,27.8,00.0,38.0,31.0,18.1,0002.5,0025.03,0008.60,0007.02
2021-09-15 23:42:00,,0823.0,4.99,0.00,29.0,26.0,00.0,38.0,30.5,18.3,0002.0,0025.40,0008.65,0007.02
2021-09-15 23:43:00,,0823.0,5.01,0.00,28.9,25.6,00.0,38.0,30.3,18.6,0001.7,0026.21,0008.70,0007.02
2021-09-15 23:44:00,,0823.0,5.00,0.00,28.9,26.0,00.0,38.0,30.5,18.8,0002.4,0027.56,0008.70,0007.01
2021-09-15 23:45:00,,0823.0,4.99,0.00,28.9,26.5,00.0,38.0,30.5,18.7,0002.9,0028.66,0008.73,0007.00
2021-09-15 23:46:00,,0822.9,5.00,0.00,28.9,27.0,00.0,38.0,30.6,18.6,0002.8,0027.89,0008.73,0006.99
2021-09-15 23:47:00,,0823.0,5.00,0.00,28.9,27.4,00.0,38.0,30.8,18.6,0002.7,0027.26,0008.67,0006.94
2021-09-15 23:48:00,,0823.0,5.00,0.00,29.0,27.7,00.0,38.0,30.9,18.1,0002.9,0027.13,0008.64,0006.91
2021-09-15 23:49:00,,0823.0,5.01,0.00,29.1,28.0,00.0,38.0,31.0,18.0,0002.9,0025.26,0008.60,0006.88
2021-09-15 23:50:00,,0823.1,4.99,0.00,29.1,27.7,00.0,38.0,30.9,17.9,0002.2,0024.48,0008.58,0006.86
2021-09-15 23:51:00,,0823.0,5.00,0.00,29.0,26.0,00.0,38.0,30.4,17.9,0001.6,0025.00,0008.52,0006.82
2021-09-15 23:52:00,,0823.0,5.01,0.00,28.9,25.5,00.0,38.0,30.2,18.0,0002.3,0025.60,0008.45,0006.80
2021-09-15 23:53:00,,0823.0,4.99,0.00,28.8,25.9,00.0,38.0,30.3,18.2,0002.7,0024.37,0008.37,0006.79
2021-09-15 23:54:00,,0823.0,5.01,0.00,28.8,26.3,00.0,37.9,30.4,18.4,0002.6,0023.17,0008.24,0006.73
2021-09-15 23:55:00,,0823.1,5.00,0.00,28.8,26.8,00.0,37.9,30.6,18.8,0002.3,0022.05,0008.15,0006.68
2021-09-15 23:56:00,,0823.1,4.99,0.00,28.9,27.2,00.0,37.9,30.7,18.6,0001.7,0022.56,0008.04,0006.63
2021-09-15 23:57:00,,0823.1,5.00,0.00,28.9,27.6,00.0,37.9,30.8,18.7,0002.2,0022.50,0008.02,0006.60
2021-09-15 23:58:00,,0823.1,5.00,0.00,29.0,27.9,00.0,37.9,30.9,18.6,0002.2,0021.73,0007.92,0006.60
2021-09-15 23:59:00,,0823.1,5.01,0.00,29.1,27.7,00.0,38.0,30.9,18.7,0002.1,0021.18,0007.88,0006.59
